RH
56 47 43 44 46 51 53 56 59 57 50 42 31 19 15 18 22 20 16 16 14 14 16 22 26 36 43 56 70 78 77 85 90 64 73 64 69 73 65 77 96 100 92
54 46 45 46 51 54 57 60 59 54 48 35 20 16 20 23 20 18 16 15 14 16 21 27 32 43 56 66 72 74 85 84 100 94 83 81 75 59 83 100 96 75 66
50 46 48 51 54 58 61 61 58 51 37 22 17 21 24 22 19 17 17 16 17 21 29 35 42 53 57 58 81 88 92 98 98 99 96 91 78 100 97 79 74 74 74
48 47 50 54 57 61 62 60 53 41 25 17 22 26 25 22 19 18 17 16 17 22 27 35 42 51 58 86 96 96 98 87 86 95 100 97 97 82 82 77 82 82 87
48 50 54 57 61 62 61 55 42 28 19 24 29 28 25 22 21 18 16 19 25 28 35 44 58 63 72 96 96 94 94 93 96 98 97 98 95 87 83 83 99 95 97
49 53 56 60 63 62 57 45 29 20 25 31 32 30 26 24 20 16 17 26 28 44 52 61 64 71 76 92 94 97 95 97 97 94 95 100 89 91 86 100 99 100 97
51 55 58 62 62 58 48 32 21 26 32 34 34 31 28 23 17 14 14 22 47 58 64 68 74 82 76 81 84 100 98 96 92 94 92 90 99 92 99 97 98 100 100
52 55 60 62 59 52 38 24 25 33 36 38 36 31 26 18 15 14 18 31 60 65 68 77 89 82 87 95 96 98 86 78 74 81 96 96 97 97 99 100 98 98 98
53 57 61 60 54 42 25 24 33 37 40 40 35 30 20 15 15 16 21 62 67 75 78 94 94 94 94 98 97 97 93 77 70 91 100 100 89 86 99 96 91 100 100
55 60 60 53 43 29 23 32 37 40 42 39 34 22 16 16 18 21 55 82 90 84 95 88 88 99 96 100 95 97 94 75 97 99 82 73 70 72 80 94 100 97 100
57 59 54 48 34 22 31 36 39 42 42 37 27 17 15 17 20 27 41 94 93 97 90 89 90 97 97 95 96 94 92 96 94 86 74 74 78 81 82 86 94 97 96
58 55 51 38 22 30 34 37 42 44 40 30 19 15 14 17 25 32 57 96 94 92 95 92 93 98 98 98 88 98 100 100 83 81 84 87 87 84 84 85 88 92 96
58 54 40 22 27 31 34 40 44 43 34 21 17 16 19 22 28 36 66 96 93 93 95 99 100 97 69 59 68 98 92 84 91 92 95 89 90 88 84 87 85 90 87
56 43 22 24 28 31 37 43 45 38 23 20 21 26 27 29 34 66 96 90 94 97 98 94 75 67 62 68 75 76 82 89 100 100 99 91 92 88 87 91 94 94 93
44 21 23 26 28 33 42 46 42 26 24 27 30 36 45 44 66 96 95 93 96 93 99 77 67 64 63 79 79 82 87 91 98 97 96 94 92 91 89 91 95 95 97
19 22 25 26 30 38 47 45 28 22 21 22 28 34 37 42 80 98 99 98 100 100 85 72 70 70 80 88 90 89 88 92 96 97 93 95 96 96 98 93 93 98 98
21 24 25 27 36 49 43 26 18 16 19 23 28 32 36 40 50 99 100 100 75 67 70 74 77 76 88 91 94 96 95 92 97 96 96 96 96 98 98 97 96 97 92
22 24 27 38 51 43 25 21 23 25 25 22 25 35 41 46 52 100 100 77 61 64 75 81 78 81 92 94 96 99 95 92 95 93 95 97 97 98 98 98 97 98 97
25 28 40 53 43 24 20 22 24 26 28 34 37 40 50 54 68 77 72 70 72 74 79 79 76 87 94 97 97 97 97 96 96 97 96 96 97 98 97 97 98 96 99
31 43 55 41 22 20 21 23 25 28 37 42 47 55 59 81 80 68 67 71 76 77 81 76 79 94 97 98 97 97 95 96 96 96 96 97 98 99 98 97 98 98 97
49 56 36 20 20 21 23 25 31 40 47 51 55 60 78 100 76 71 73 76 76 77 80 76 92 96 97 98 97 97 96 96 98 99 98 96 97 96 97 98 99 98 99
53 31 20 19 21 22 25 32 41 48 54 58 60 62 64 64 67 73 77 74 72 77 77 93 95 96 97 97 97 98 97 99 98 98 96 94 98 98 98 97 98 99 98
27 20 20 22 23 26 30 39 48 55 60 63 66 62 61 65 69 77 77 71 72 72 82 96 96 94 97 99 99 100 97 97 97 96 93 95 97 96 100 99 99 99 98
20 21 22 23 26 31 40 49 55 62 66 65 62 60 62 74 79 78 73 70 71 70 95 95 97 99 98 96 99 97 97 97 97 95 98 98 98 98 95 98 99 94 99
21 22 23 26 31 42 50 55 62 67 66 63 62 59 73 83 80 74 71 72 69 86 92 97 98 97 96 96 98 96 96 96 98 96 97 97 98 100 100 98 98 86 88
23 24 27 32 43 53 60 65 68 69 65 66 67 68 85 84 78 72 72 71 74 92 97 97 97 98 97 98 95 96 97 94 96 94 96 97 97 97 94 99 97 90 88
Wind_Speed
29 28 26 23 19 15 11 7 4 5 7 9 12 13 15 17 19 20 21 22 24 24 24 25 26 26 28 27 27 29 31 30 38 54 48 51 52 47 45 44 41 37 37
29 27 24 21 17 13 9 6 4 6 8 11 12 14 16 18 20 22 23 24 25 25 26 27 29 29 29 29 29 29 30 30 33 43 50 51 49 46 50 43 40 45 48
28 25 22 19 15 11 7 5 4 7 10 11 13 15 17 20 21 23 24 24 25 26 28 29 31 31 31 29 27 29 29 31 33 38 46 46 49 44 41 48 46 44 41
26 23 20 17 13 9 6 4 5 8 11 12 14 17 19 21 22 23 25 26 27 28 29 30 29 28 28 27 27 29 32 38 39 40 40 43 34 46 42 46 43 44 45
25 21 18 15 12 8 5 5 7 9 11 13 16 18 20 22 23 26 26 27 28 29 29 28 27 26 24 24 27 33 33 35 40 40 32 45 42 44 44 46 45 47 45
22 19 17 13 10 7 5 6 7 10 12 15 17 19 21 23 25 26 26 27 29 29 29 28 28 28 30 29 29 28 28 36 31 42 43 40 43 43 46 45 42 46 46
20 18 15 12 9 6 5 6 8 10 13 16 18 20 23 25 26 28 28 27 27 27 27 29 30 32 30 32 33 33 32 33 35 36 39 38 43 43 41 48 48 44 45
19 16 13 11 8 6 6 6 9 12 15 17 20 23 24 26 28 29 27 26 26 26 28 29 32 35 33 32 35 35 40 41 41 34 33 37 37 41 40 39 42 44 46
18 15 12 10 8 6 5 7 10 13 16 19 22 24 26 27 28 28 27 26 28 29 29 30 32 30 34 31 33 38 40 42 32 33 31 33 38 32 29 32 38 40 43
16 14 12 9 5 4 6 9 12 15 19 21 23 24 26 27 27 27 24 25 28 30 31 36 34 32 30 31 34 36 39 35 37 36 41 35 30 29 30 30 34 37 39
16 14 10 6 4 5 7 11 14 17 20 22 24 24 25 26 27 26 25 23 27 30 35 36 37 32 32 32 30 31 29 32 36 36 33 33 33 33 33 34 32 32 37
15 11 7 5 4 6 9 13 16 19 22 24 25 25 25 26 27 27 24 23 24 30 32 36 36 33 32 30 28 25 27 28 31 30 33 35 36 36 36 34 33 32 32
12 8 5 4 4 8 11 15 18 21 24 25 26 28 29 29 29 27 25 26 27 28 31 32 33 33 32 30 25 24 26 28 29 31 34 35 35 35 35 36 34 34 34
9 6 5 4 6 10 14 18 20 22 24 25 27 28 29 30 30 27 28 30 30 32 34 36 34 31 27 26 26 27 28 28 28 32 34 33 35 35 35 35 37 38 39
7 5 3 5 9 12 16 19 21 21 22 24 24 25 28 29 27 24 26 27 29 30 30 32 32 30 29 28 29 30 31 31 32 32 33 33 33 34 35 35 35 37 37
5 3 4 8 11 15 18 18 19 20 21 22 23 24 25 25 24 25 24 26 27 26 28 29 30 29 29 30 32 34 33 33 33 32 31 32 33 35 36 36 33 35 36
2 3 7 11 14 17 18 20 23 21 22 23 24 24 24 26 27 24 24 26 27 26 27 27 28 29 29 30 33 34 35 34 33 31 33 32 34 34 34 35 33 34 35
3 7 10 13 15 17 19 20 22 25 27 28 24 25 26 27 26 23 25 28 28 26 26 28 29 28 29 31 34 35 35 33 32 33 34 32 32 33 33 32 30 33 33
6 9 11 14 16 18 19 20 22 24 26 27 28 27 28 28 26 27 26 26 26 28 28 28 28 28 29 32 33 34 33 33 34 35 33 33 32 31 29 28 29 28 29
8 11 13 16 17 18 20 22 24 25 26 27 28 30 30 30 31 29 27 26 25 27 27 28 27 28 30 32 33 32 33 33 34 32 32 32 30 28 27 28 27 27 26
10 12 15 16 17 19 22 23 24 24 26 27 28 28 26 24 28 27 28 26 26 26 26 26 27 28 30 31 31 31 33 33 31 30 30 29 29 27 25 24 24 24 22
12 14 16 17 19 21 23 23 23 25 26 28 28 28 26 26 27 27 27 26 24 25 24 26 26 28 30 30 30 32 32 31 29 30 28 28 27 25 24 23 22 20 19
13 15 16 19 21 22 22 23 24 26 27 27 28 28 28 27 27 26 26 24 25 24 23 23 26 28 27 26 27 29 30 28 27 26 26 29 26 23 22 21 18 20 16
14 16 19 20 21 22 23 24 24 24 25 26 27 28 28 27 26 26 25 24 24 22 22 22 25 27 26 23 27 26 25 24 25 26 25 24 21 19 16 18 18 17 13
16 18 20 21 22 23 23 24 24 24 25 26 27 27 27 26 26 24 23 23 23 22 21 23 25 26 25 22 26 23 23 22 21 22 20 19 21 17 16 15 16 15 12
18 19 20 21 21 22 24 24 24 24 25 25 26 26 26 26 25 24 24 23 22 22 22 24 25 23 21 24 25 22 22 21 22 20 18 17 20 16 15 13 12 12 11
Wind_Direction
177 176 176 174 176 178 180 191 228 278 300 310 314 315 316 318 320 322 323 322 320 320 319 317 316 315 311 310 309 307 305 307 302 308 313 316 316 317 318 317 313 307 308
177 177 176 174 175 178 185 209 255 290 309 312 313 314 318 320 322 322 322 322 322 321 320 317 317 316 312 310 308 307 310 313 306 306 309 311 313 319 316 311 310 311 310
175 176 173 173 177 184 199 229 276 305 310 312 314 318 320 321 322 323 323 322 322 321 319 318 318 316 313 315 316 316 318 313 306 297 299 307 309 306 309 312 313 307 308
174 175 175 176 182 193 210 245 287 306 311 314 319 321 323 324 325 323 322 323 322 320 319 319 319 319 320 322 320 317 310 309 308 304 298 298 308 313 314 311 313 314 311
174 175 177 181 189 201 222 262 292 310 311 318 322 324 324 324 324 326 325 323 321 321 320 321 324 324 321 316 315 311 314 311 307 306 315 313 311 314 315 318 309 313 310
175 178 182 187 196 209 242 279 301 310 317 323 323 324 325 326 326 326 324 322 319 319 322 327 327 326 327 319 314 315 311 306 312 314 312 308 309 314 318 312 311 308 306
180 183 187 192 202 222 258 287 308 315 321 323 325 326 327 326 326 325 324 319 317 321 326 327 328 328 326 323 325 316 314 310 309 309 308 310 310 315 315 311 309 305 302
182 187 189 197 211 234 269 300 312 319 322 326 327 326 327 327 326 325 323 319 321 326 329 328 328 330 326 324 317 316 314 314 316 317 311 310 310 308 306 303 304 305 306
185 188 193 202 221 248 290 307 315 321 326 328 328 329 327 328 325 325 327 325 327 330 331 329 328 321 322 319 318 318 316 313 321 321 311 307 310 311 310 311 311 313 308
186 190 196 207 229 276 298 309 322 326 327 328 329 329 328 325 327 331 332 328 327 331 328 324 322 322 321 321 319 317 310 321 327 316 313 316 323 328 331 326 323 314 310
187 190 195 213 255 284 308 322 325 326 327 328 328 328 327 327 330 334 333 329 329 326 320 320 324 326 322 320 319 310 318 320 311 313 322 330 335 334 334 334 331 325 319
185 188 201 231 266 301 317 324 326 328 329 328 327 329 331 332 334 335 333 329 328 320 319 321 326 322 320 321 320 322 319 317 322 331 334 334 333 334 335 337 337 335 330
182 195 212 236 282 312 324 325 329 329 328 330 331 332 334 334 335 335 335 334 325 323 320 321 315 321 324 325 330 328 332 336 338 337 332 332 334 334 335 340 341 343 339
185 197 215 264 310 322 326 328 328 329 330 332 334 332 331 332 335 338 336 329 329 326 325 317 321 324 328 333 336 340 342 342 336 333 333 334 335 338 340 344 343 346 344
191 199 238 305 319 325 326 327 329 331 333 333 331 327 328 329 332 327 325 329 324 322 317 322 329 334 338 341 341 343 343 342 341 339 337 336 337 340 341 345 346 346 346
185 218 299 320 322 322 325 326 328 330 332 332 330 328 327 325 325 324 330 322 323 325 325 329 335 339 339 340 342 341 342 343 342 339 338 338 338 339 339 344 346 348 346
216 301 316 316 321 326 326 328 330 331 335 336 332 331 331 329 327 330 326 325 327 331 333 336 338 339 338 339 340 339 339 341 340 339 338 339 338 337 340 343 347 348 348
294 305 313 322 327 328 329 330 330 332 334 334 335 335 335 334 331 331 327 328 330 338 340 338 339 338 338 338 339 338 339 339 339 339 339 338 340 340 341 344 347 347 347
303 315 323 326 328 330 330 329 331 333 332 334 337 340 339 335 336 333 333 332 335 338 339 339 339 339 338 338 338 338 338 338 339 337 341 342 344 343 343 345 346 347 348
316 322 326 328 330 331 330 333 334 334 335 337 340 339 338 340 334 335 337 338 337 337 339 338 340 339 338 339 339 340 340 341 341 343 345 347 349 348 345 345 348 347 351
321 326 328 331 332 332 335 335 334 335 336 337 338 339 336 328 332 336 339 339 337 338 340 338 338 339 340 341 341 341 341 342 345 346 347 349 349 347 346 345 347 352 352
327 330 333 333 333 335 335 335 335 335 336 337 337 338 339 337 337 338 338 337 339 340 340 338 339 342 342 343 344 344 342 344 346 346 344 348 346 345 345 346 348 348 350
332 333 333 334 334 335 335 335 336 337 337 337 338 339 341 339 339 339 338 340 341 342 341 341 342 343 345 344 346 345 343 345 344 344 343 346 347 348 347 347 349 349 352
333 334 334 334 335 335 335 335 337 336 336 338 340 341 340 340 339 339 340 341 342 343 344 344 346 347 345 346 349 347 346 347 348 350 345 343 346 350 350 353 351 355 1
334 333 333 335 335 334 335 335 337 337 339 340 341 340 340 340 341 342 344 344 343 345 348 349 351 350 348 348 349 346 348 354 350 341 340 341 343 349 353 355 359 10 28
332 333 335 335 333 334 335 334 336 338 339 339 340 340 340 342 343 345 345 345 346 348 349 353 355 352 351 352 351 353 353 354 351 342 344 347 350 354 3 9 14 22 35